| time (UTC) | temp C | wind direction | speed KPH | gust KPH | rain 1hr cm | rain 24hr cm | rain mn cm | humidity % | barometer mb |
| 20260506164015 | 12 | 0 | 0.0 | 0.0 | 0.00 | 0.00 | 0.00 | 60 | 1014.5 |
| 20260506163515 | 12 | 0 | 0.0 | 1.6 | 0.00 | 0.00 | 0.00 | 62 | 1014.5 |
| 20260506163038 | 12 | 0 | 0.0 | 3.2 | 0.00 | 0.00 | 0.00 | 59 | 1014.5 |
| 20260506162516 | 12 | 305 | 0.0 | 3.2 | 0.00 | 0.00 | 0.00 | 62 | 1014.4 |
| 20260506162015 | 12 | 307 | 0.0 | 4.8 | 0.00 | 0.00 | 0.00 | 62 | 1014.5 |
| 20260506161532 | 12 | 0 | 0.0 | 6.4 | 0.00 | 0.00 | 0.00 | 66 | 1014.5 |
| 20260506161016 | 12 | 298 | 1.6 | 6.4 | 0.00 | 0.00 | 0.00 | 66 | 1014.5 |
| 20260506160515 | 12 | 323 | 1.6 | 8.0 | 0.00 | 0.00 | 0.00 | 66 | 1014.5 |
| 20260506160034 | 12 | 319 | 3.2 | 8.0 | 0.00 | 0.00 | 0.00 | 63 | 1014.5 |
| 20260506155515 | 12 | 302 | 3.2 | 8.0 | 0.00 | 0.00 | 0.00 | 63 | 1014.4 |
| 20260506155016 | 12 | 233 | 3.2 | 8.0 | 0.00 | 0.00 | 0.00 | 67 | 1014.5 |
| 20260506154533 | 12 | 333 | 4.8 | 9.7 | 0.00 | 0.00 | 0.00 | 65 | 1014.5 |
| 20260506154016 | 12 | 198 | 4.8 | 9.7 | 0.00 | 0.00 | 0.00 | 68 | 1014.5 |
| 20260506153516 | 12 | 35 | 4.8 | 9.7 | 0.00 | 0.00 | 0.00 | 67 | 1014.5 |
| 20260506153032 | 12 | 329 | 4.8 | 11.3 | 0.00 | 0.00 | 0.00 | 67 | 1014.6 |
| 20260506152514 | 12 | 325 | 4.8 | 12.9 | 0.00 | 0.00 | 0.00 | 68 | 1014.6 |
| 20260506152016 | 12 | 36 | 4.8 | 12.9 | 0.00 | 0.00 | 0.00 | 64 | 1014.6 |
| 20260506151536 | 12 | 189 | 6.4 | 11.3 | 0.00 | 0.00 | 0.00 | 66 | 1014.6 |
| 20260506151019 | 12 | 169 | 4.8 | 9.7 | 0.00 | 0.00 | 0.00 | 66 | 1014.6 |
| 20260506150515 | 12 | 16 | 6.4 | 9.7 | 0.00 | 0.00 | 0.00 | 63 | 1014.7 |
| 20260506150030 | 12 | 100 | 6.4 | 11.3 | 0.00 | 0.00 | 0.00 | 66 | 1014.6 |
| 20260506145519 | 12 | 195 | 4.8 | 12.9 | 0.00 | 0.00 | 0.00 | 66 | 1014.6 |
| 20260506145015 | 12 | 253 | 8.0 | 12.9 | 0.00 | 0.00 | 0.00 | 65 | 1014.6 |
| 20260506144536 | 12 | 42 | 4.8 | 16.1 | 0.00 | 0.00 | 0.00 | 66 | 1014.7 |
| 20260506144020 | 13 | 139 | 6.4 | 16.1 | 0.00 | 0.00 | 0.00 | 65 | 1014.7 |
| 20260506143515 | 12 | 31 | 6.4 | 14.5 | 0.00 | 0.00 | 0.00 | 68 | 1014.8 |
| 20260506143033 | 12 | 91 | 6.4 | 14.5 | 0.00 | 0.00 | 0.00 | 67 | 1014.8 |
| 20260506142518 | 12 | 110 | 8.0 | 14.5 | 0.00 | 0.00 | 0.00 | 67 | 1014.9 |
| 20260506142015 | 12 | 115 | 8.0 | 14.5 | 0.00 | 0.00 | 0.00 | 66 | 1014.8 |
| 20260506141532 | 12 | 155 | 8.0 | 14.5 | 0.00 | 0.00 | 0.00 | 69 | 1014.8 |
| 20260506141017 | 12 | 269 | 6.4 | 12.9 | 0.00 | 0.00 | 0.00 | 68 | 1014.9 |
| 20260506140518 | 12 | 226 | 4.8 | 12.9 | 0.00 | 0.00 | 0.00 | 72 | 1014.9 |
| 20260506140032 | 12 | 328 | 8.0 | 14.5 | 0.00 | 0.00 | 0.00 | 72 | 1014.8 |
| 20260506135516 | 12 | 326 | 8.0 | 14.5 | 0.00 | 0.00 | 0.00 | 72 | 1014.9 |
| 20260506135015 | 12 | 351 | 6.4 | 12.9 | 0.00 | 0.00 | 0.00 | 73 | 1015.0 |
| 20260506134530 | 12 | 57 | 6.4 | 12.9 | 0.00 | 0.00 | 0.00 | 71 | 1015.1 |
| 20260506134017 | 12 | 89 | 8.0 | 14.5 | 0.00 | 0.00 | 0.00 | 72 | 1015.1 |
| 20260506133514 | 12 | 226 | 8.0 | 14.5 | 0.00 | 0.00 | 0.00 | 72 | 1015.1 |
| 20260506133043 | 12 | 116 | 8.0 | 14.5 | 0.00 | 0.00 | 0.00 | 71 | 1015.2 |
| 20260506132515 | 12 | 190 | 6.4 | 16.1 | 0.00 | 0.00 | 0.00 | 73 | 1015.3 |
| 20260506132015 | 12 | 146 | 8.0 | 16.1 | 0.00 | 0.00 | 0.00 | 71 | 1015.2 |
| 20260506131535 | 12 | 86 | 8.0 | 16.1 | 0.00 | 0.00 | 0.00 | 71 | 1015.3 |
| 20260506131015 | 12 | 172 | 4.8 | 14.5 | 0.00 | 0.00 | 0.00 | 71 | 1015.2 |
| 20260506130517 | 12 | 72 | 8.0 | 14.5 | 0.00 | 0.00 | 0.00 | 72 | 1015.3 |
| 20260506130032 | 12 | 269 | 8.0 | 14.5 | 0.00 | 0.00 | 0.00 | 72 | 1015.2 |
| 20260506125516 | 12 | 136 | 6.4 | 14.5 | 0.00 | 0.00 | 0.00 | 72 | 1015.2 |
| 20260506125014 | 12 | 76 | 8.0 | 14.5 | 0.00 | 0.00 | 0.00 | 72 | 1015.3 |
| 20260506124532 | 12 | 315 | 6.4 | 14.5 | 0.00 | 0.00 | 0.00 | 72 | 1015.3 |
| 20260506124014 | 12 | 349 | 6.4 | 16.1 | 0.00 | 0.00 | 0.00 | 72 | 1015.2 |
| 20260506123516 | 12 | 106 | 6.4 | 16.1 | 0.00 | 0.00 | 0.00 | 73 | 1015.2 |
| 20260506123032 | 12 | 114 | 8.0 | 17.7 | 0.00 | 0.00 | 0.00 | 73 | 1015.2 |
| 20260506122515 | 12 | 83 | 6.4 | 17.7 | 0.00 | 0.00 | 0.00 | 73 | 1015.2 |
| 20260506122015 | 12 | 114 | 8.0 | 14.5 | 0.00 | 0.00 | 0.00 | 72 | 1015.3 |
| 20260506121533 | 12 | 267 | 6.4 | 14.5 | 0.00 | 0.00 | 0.00 | 72 | 1015.2 |
| 20260506121019 | 13 | 209 | 8.0 | 14.5 | 0.00 | 0.00 | 0.00 | 73 | 1015.2 |
| 20260506120515 | 13 | 127 | 8.0 | 14.5 | 0.00 | 0.00 | 0.00 | 71 | 1015.1 |
| 20260506120037 | 13 | 146 | 4.8 | 12.9 | 0.00 | 0.00 | 0.00 | 73 | 1015.2 |
| 20260506115519 | 13 | 122 | 6.4 | 11.3 | 0.00 | 0.00 | 0.00 | 73 | 1015.2 |
| 20260506115016 | 12 | 136 | 4.8 | 12.9 | 0.00 | 0.00 | 0.00 | 75 | 1015.2 |
| 20260506114530 | 11 | 295 | 4.8 | 12.9 | 0.00 | 0.00 | 0.00 | 74 | 1015.1 |
| 20260506114021 | 11 | 113 | 8.0 | 12.9 | 0.00 | 0.00 | 0.00 | 74 | 1015.1 |
| 20260506113515 | 11 | 126 | 6.4 | 11.3 | 0.00 | 0.00 | 0.00 | 74 | 1015.1 |
| 20260506113045 | 11 | 79 | 4.8 | 11.3 | 0.00 | 0.00 | 0.00 | 74 | 1015.1 |
| 20260506112516 | 11 | 13 | 3.2 | 11.3 | 0.00 | 0.00 | 0.00 | 73 | 1015.2 |
| 20260506112015 | 11 | 113 | 4.8 | 14.5 | 0.00 | 0.00 | 0.00 | 73 | 1015.3 |
| 20260506111530 | 11 | 326 | 6.4 | 14.5 | 0.00 | 0.00 | 0.00 | 73 | 1015.3 |
| 20260506111015 | 11 | 96 | 3.2 | 12.9 | 0.00 | 0.00 | 0.00 | 75 | 1015.2 |
| 20260506110518 | 10 | 310 | 6.4 | 12.9 | 0.00 | 0.00 | 0.00 | 72 | 1015.3 |
| 20260506110035 | 10 | 304 | 3.2 | 12.9 | 0.00 | 0.00 | 0.00 | 74 | 1015.4 |
| 20260506105515 | 10 | 78 | 6.4 | 14.5 | 0.00 | 0.00 | 0.00 | 74 | 1015.3 |
| 20260506105015 | 10 | 105 | 8.0 | 16.1 | 0.00 | 0.00 | 0.00 | 72 | 1015.4 |
| 20260506104537 | 10 | 114 | 8.0 | 16.1 | 0.00 | 0.00 | 0.00 | 72 | 1015.3 |
| 20260506104015 | 10 | 130 | 8.0 | 16.1 | 0.00 | 0.00 | 0.00 | 71 | 1015.3 |
| 20260506103515 | 10 | 119 | 8.0 | 14.5 | 0.00 | 0.00 | 0.00 | 74 | 1015.4 |
| 20260506103036 | 10 | 107 | 9.7 | 14.5 | 0.00 | 0.00 | 0.00 | 72 | 1015.3 |
| 20260506102515 | 10 | 120 | 9.7 | 14.5 | 0.00 | 0.00 | 0.00 | 72 | 1015.4 |
| 20260506102017 | 10 | 97 | 8.0 | 14.5 | 0.00 | 0.00 | 0.00 | 74 | 1015.4 |
| 20260506101544 | 9 | 118 | 8.0 | 17.7 | 0.00 | 0.00 | 0.00 | 74 | 1015.3 |
| 20260506101019 | 9 | 137 | 9.7 | 17.7 | 0.00 | 0.00 | 0.00 | 74 | 1015.3 |
| 20260506100515 | 9 | 6 | 8.0 | 16.1 | 0.00 | 0.00 | 0.00 | 77 | 1015.4 |
| 20260506100033 | 9 | 115 | 9.7 | 16.1 | 0.00 | 0.00 | 0.00 | 77 | 1015.4 |
| 20260506095520 | 9 | 124 | 11.3 | 17.7 | 0.00 | 0.00 | 0.00 | 75 | 1015.3 |
| 20260506095016 | 9 | 110 | 11.3 | 17.7 | 0.00 | 0.00 | 0.00 | 76 | 1015.4 |
| 20260506094533 | 9 | 122 | 11.3 | 17.7 | 0.00 | 0.00 | 0.00 | 76 | 1015.4 |
| 20260506094016 | 9 | 119 | 9.7 | 17.7 | 0.00 | 0.00 | 0.00 | 77 | 1015.3 |
| 20260506093515 | 10 | 123 | 9.7 | 19.3 | 0.00 | 0.00 | 0.00 | 77 | 1015.3 |
| 20260506093033 | 10 | 113 | 12.9 | 19.3 | 0.00 | 0.00 | 0.00 | 77 | 1015.3 |
| 20260506092515 | 10 | 115 | 11.3 | 16.1 | 0.00 | 0.00 | 0.00 | 78 | 1015.3 |
| 20260506092017 | 11 | 15 | 8.0 | 14.5 | 0.00 | 0.00 | 0.00 | 80 | 1015.3 |
| 20260506091532 | 11 | 96 | 8.0 | 14.5 | 0.00 | 0.00 | 0.00 | 79 | 1015.1 |
| 20260506091014 | 11 | 309 | 1.6 | 12.9 | 0.00 | 0.00 | 0.00 | 81 | 1015.1 |
| 20260506090514 | 10 | 120 | 6.4 | 12.9 | 0.00 | 0.00 | 0.00 | 81 | 1015.1 |
| 20260506090032 | 10 | 117 | 4.8 | 12.9 | 0.00 | 0.00 | 0.00 | 81 | 1015.1 |
| 20260506085514 | 10 | 110 | 4.8 | 9.7 | 0.00 | 0.00 | 0.00 | 81 | 1015.2 |
| 20260506085015 | 10 | 105 | 4.8 | 12.9 | 0.00 | 0.00 | 0.00 | 81 | 1015.1 |
| 20260506084538 | 10 | 0 | 6.4 | 12.9 | 0.00 | 0.00 | 0.00 | 80 | 1015.2 |
| 20260506084016 | 10 | 91 | 1.6 | 14.5 | 0.00 | 0.00 | 0.00 | 81 | 1015.2 |
| 20260506083519 | 10 | 307 | 1.6 | 14.5 | 0.00 | 0.00 | 0.00 | 83 | 1015.1 |
| 20260506083034 | 10 | 110 | 6.4 | 9.7 | 0.00 | 0.00 | 0.00 | 83 | 1015.1 |
| 20260506082515 | 10 | 321 | 1.6 | 6.4 | 0.00 | 0.00 | 0.00 | 83 | 1015.2 |
| 20260506082016 | 10 | 310 | 0.0 | 8.0 | 0.00 | 0.00 | 0.00 | 83 | 1015.1 |
| 20260506081535 | 10 | 304 | 1.6 | 8.0 | 0.00 | 0.00 | 0.00 | 82 | 1015.0 |
| 20260506081021 | 10 | 309 | 3.2 | 8.0 | 0.00 | 0.00 | 0.00 | 82 | 1015.1 |
| 20260506080517 | 10 | 326 | 0.0 | 9.7 | 0.00 | 0.00 | 0.00 | 82 | 1015.0 |
| 20260506073037 | 9 | 338 | 0.0 | 1.6 | 0.00 | 0.00 | 0.00 | 84 | 1014.9 |
| 20260506072516 | 9 | 0 | 0.0 | 3.2 | 0.00 | 0.00 | 0.00 | 84 | 1015.0 |
| 20260506072019 | 9 | 0 | 0.0 | 4.8 | 0.00 | 0.00 | 0.00 | 85 | 1014.9 |
| 20260506071534 | 8 | 0 | 0.0 | 4.8 | 0.00 | 0.00 | 0.00 | 85 | 1014.9 |
| 20260506071015 | 8 | 340 | 0.0 | 8.0 | 0.00 | 0.00 | 0.00 | 85 | 1014.8 |
| 20260506070515 | 8 | 0 | 1.6 | 8.0 | 0.00 | 0.00 | 0.00 | 84 | 1014.8 |
| 20260506062517 | 8 | 346 | 3.2 | 8.0 | 0.00 | 0.00 | 0.00 | 85 | 1014.5 |
| 20260506062016 | 7 | 347 | 3.2 | 9.7 | 0.00 | 0.00 | 0.00 | 85 | 1014.5 |
| 20260506061535 | 7 | 356 | 4.8 | 9.7 | 0.00 | 0.00 | 0.00 | 85 | 1014.5 |
| 20260506061016 | 7 | 359 | 4.8 | 9.7 | 0.00 | 0.00 | 0.00 | 85 | 1014.5 |
| 20260506060518 | 7 | 349 | 6.4 | 9.7 | 0.00 | 0.00 | 0.00 | 85 | 1014.4 |
| 20260506051016 | 7 | 353 | 4.8 | 8.0 | 0.00 | 0.00 | 0.00 | 85 | 1014.3 |
| 20260506050518 | 7 | 357 | 6.4 | 8.0 | 0.00 | 0.00 | 0.00 | 85 | 1014.3 |
| 20260506045020 | 7 | 351 | 4.8 | 9.7 | 0.00 | 0.00 | 0.00 | 84 | 1014.2 |
| 20260506044536 | 7 | 354 | 6.4 | 9.7 | 0.00 | 0.00 | 0.00 | 84 | 1014.2 |
| 20260506044017 | 7 | 350 | 6.4 | 9.7 | 0.00 | 0.00 | 0.00 | 84 | 1014.2 |
| 20260506043520 | 7 | 351 | 6.4 | 9.7 | 0.00 | 0.00 | 0.00 | 84 | 1014.2 |
| 20260506043036 | 7 | 355 | 4.8 | 6.4 | 0.00 | 0.00 | 0.00 | 84 | 1014.3 |
| 20260506042518 | 7 | 348 | 4.8 | 8.0 | 0.00 | 0.00 | 0.00 | 84 | 1014.2 |
| 20260506042016 | 7 | 345 | 4.8 | 8.0 | 0.00 | 0.00 | 0.00 | 84 | 1014.3 |
| 20260506041535 | 7 | 347 | 4.8 | 6.4 | 0.00 | 0.00 | 0.00 | 84 | 1014.3 |
| 20260506041015 | 8 | 345 | 3.2 | 6.4 | 0.00 | 0.00 | 0.00 | 84 | 1014.3 |
| 20260506040515 | 8 | 342 | 1.6 | 6.4 | 0.00 | 0.00 | 0.00 | 83 | 1014.4 |
| 20260506040039 | 8 | 340 | 3.2 | 6.4 | 0.00 | 0.00 | 0.00 | 83 | 1014.3 |
| 20260506035518 | 8 | 343 | 3.2 | 6.4 | 0.00 | 0.00 | 0.00 | 84 | 1014.3 |
| 20260506035015 | 8 | 342 | 3.2 | 6.4 | 0.00 | 0.00 | 0.00 | 84 | 1014.4 |
| 20260506034530 | 8 | 340 | 1.6 | 6.4 | 0.00 | 0.00 | 0.00 | 84 | 1014.4 |
| 20260506034015 | 8 | 342 | 1.6 | 6.4 | 0.00 | 0.00 | 0.00 | 84 | 1014.5 |
| 20260506033514 | 8 | 340 | 3.2 | 6.4 | 0.00 | 0.00 | 0.00 | 84 | 1014.4 |
| 20260506033034 | 8 | 339 | 1.6 | 6.4 | 0.00 | 0.00 | 0.00 | 84 | 1014.4 |
| 20260506032516 | 8 | 0 | 1.6 | 6.4 | 0.00 | 0.00 | 0.00 | 84 | 1014.4 |
| 20260506032015 | 8 | 360 | 3.2 | 6.4 | 0.00 | 0.00 | 0.00 | 84 | 1014.5 |
| 20260506031530 | 8 | 338 | 1.6 | 6.4 | 0.00 | 0.00 | 0.00 | 84 | 1014.5 |
| 20260506031016 | 8 | 341 | 1.6 | 6.4 | 0.00 | 0.00 | 0.00 | 84 | 1014.4 |
| 20260506030519 | 8 | 339 | 1.6 | 6.4 | 0.00 | 0.00 | 0.00 | 83 | 1014.4 |
| 20260506030032 | 8 | 335 | 1.6 | 6.4 | 0.00 | 0.00 | 0.00 | 83 | 1014.4 |
| 20260506025516 | 8 | 341 | 3.2 | 6.4 | 0.00 | 0.00 | 0.00 | 83 | 1014.5 |
| 20260506025015 | 8 | 341 | 3.2 | 8.0 | 0.00 | 0.00 | 0.00 | 83 | 1014.4 |
| 20260506024534 | 8 | 348 | 3.2 | 8.0 | 0.00 | 0.00 | 0.00 | 83 | 1014.5 |
| 20260506024019 | 8 | 340 | 3.2 | 8.0 | 0.00 | 0.00 | 0.00 | 83 | 1014.5 |
| 20260506023515 | 8 | 347 | 3.2 | 9.7 | 0.00 | 0.00 | 0.00 | 83 | 1014.5 |
| 20260506023042 | 8 | 7 | 3.2 | 9.7 | 0.00 | 0.00 | 0.00 | 83 | 1014.5 |
| 20260506022515 | 8 | 349 | 3.2 | 8.0 | 0.00 | 0.00 | 0.00 | 84 | 1014.5 |
| 20260506022017 | 8 | 344 | 3.2 | 6.4 | 0.00 | 0.00 | 0.00 | 84 | 1014.5 |
| 20260506021535 | 8 | 338 | 1.6 | 6.4 | 0.00 | 0.00 | 0.00 | 84 | 1014.5 |
| 20260506021014 | 8 | 336 | 1.6 | 6.4 | 0.00 | 0.00 | 0.00 | 84 | 1014.5 |
| 20260506020515 | 8 | 340 | 3.2 | 6.4 | 0.00 | 0.00 | 0.00 | 84 | 1014.6 |
| 20260506020033 | 8 | 338 | 3.2 | 6.4 | 0.00 | 0.00 | 0.00 | 84 | 1014.6 |
| 20260506015515 | 8 | 340 | 1.6 | 6.4 | 0.00 | 0.00 | 0.00 | 83 | 1014.6 |
| 20260506015021 | 8 | 352 | 3.2 | 8.0 | 0.00 | 0.00 | 0.00 | 83 | 1014.6 |
| 20260506014534 | 8 | 338 | 3.2 | 8.0 | 0.00 | 0.00 | 0.00 | 83 | 1014.6 |
| 20260506014015 | 8 | 341 | 4.8 | 8.0 | 0.00 | 0.00 | 0.00 | 83 | 1014.6 |
| 20260506013515 | 8 | 349 | 4.8 | 8.0 | 0.00 | 0.00 | 0.00 | 83 | 1014.6 |
| 20260506013034 | 8 | 338 | 4.8 | 8.0 | 0.00 | 0.00 | 0.00 | 83 | 1014.6 |
| 20260506012516 | 8 | 344 | 4.8 | 8.0 | 0.00 | 0.00 | 0.00 | 83 | 1014.7 |
| 20260506012017 | 8 | 349 | 4.8 | 8.0 | 0.00 | 0.00 | 0.00 | 83 | 1014.6 |
| 20260506011533 | 8 | 341 | 3.2 | 8.0 | 0.00 | 0.00 | 0.00 | 83 | 1014.6 |
| 20260506011015 | 8 | 344 | 3.2 | 8.0 | 0.00 | 0.00 | 0.00 | 83 | 1014.7 |
| 20260506010515 | 8 | 341 | 3.2 | 9.7 | 0.00 | 0.00 | 0.00 | 83 | 1014.7 |
| 20260506010045 | 8 | 345 | 4.8 | 9.7 | 0.00 | 0.00 | 0.00 | 83 | 1014.8 |
| 20260506005514 | 8 | 343 | 3.2 | 9.7 | 0.00 | 0.00 | 0.00 | 83 | 1014.7 |
| 20260506005016 | 8 | 345 | 4.8 | 9.7 | 0.00 | 0.00 | 0.00 | 83 | 1014.8 |
| 20260506004530 | 8 | 341 | 3.2 | 8.0 | 0.00 | 0.00 | 0.00 | 82 | 1014.9 |
| 20260506004019 | 8 | 9 | 4.8 | 9.7 | 0.00 | 0.00 | 0.00 | 82 | 1014.9 |
| 20260506003515 | 8 | 345 | 3.2 | 9.7 | 0.00 | 0.00 | 0.00 | 82 | 1014.9 |
| 20260506003032 | 8 | 340 | 6.4 | 9.7 | 0.00 | 0.00 | 0.00 | 82 | 1014.9 |
| 20260506002514 | 8 | 340 | 4.8 | 8.0 | 0.00 | 0.00 | 0.00 | 82 | 1015.0 |
| 20260506002014 | 8 | 335 | 4.8 | 8.0 | 0.00 | 0.00 | 0.00 | 82 | 1015.1 |
| 20260506001532 | 8 | 340 | 3.2 | 6.4 | 0.00 | 0.00 | 0.00 | 83 | 1015.0 |
| 20260506001016 | 8 | 332 | 0.0 | 8.0 | 0.00 | 0.00 | 0.00 | 82 | 1015.0 |
| 20260506000516 | 8 | 335 | 0.0 | 8.0 | 0.00 | 0.00 | 0.00 | 82 | 1014.9 |
| 20260506000031 | 8 | 1 | 3.2 | 8.0 | 0.00 | 0.00 | 0.00 | 82 | 1014.9 |
| 20260505235515 | 8 | 352 | 1.6 | 6.4 | 0.00 | 0.00 | 0.00 | 82 | 1014.9 |
| 20260505235015 | 8 | 318 | 3.2 | 8.0 | 0.00 | 0.00 | 0.00 | 82 | 1014.9 |
| 20260505234554 | 8 | 331 | 3.2 | 8.0 | 0.00 | 0.00 | 0.00 | 82 | 1015.0 |
| 20260505234016 | 8 | 336 | 4.8 | 8.0 | 0.00 | 0.00 | 0.00 | 82 | 1015.1 |
| 20260505233515 | 8 | 330 | 1.6 | 6.4 | 0.00 | 0.00 | 0.00 | 82 | 1015.1 |
| 20260505233036 | 8 | 0 | 0.0 | 8.0 | 0.00 | 0.00 | 0.00 | 82 | 1015.1 |
| 20260505232515 | 8 | 296 | 3.2 | 8.0 | 0.00 | 0.00 | 0.00 | 82 | 1015.1 |
| 20260505232015 | 8 | 321 | 3.2 | 8.0 | 0.00 | 0.00 | 0.00 | 82 | 1015.1 |
| 20260505231534 | 8 | 311 | 3.2 | 9.7 | 0.00 | 0.00 | 0.00 | 82 | 1015.1 |
| 20260505231014 | 8 | 4 | 1.6 | 9.7 | 0.00 | 0.00 | 0.00 | 81 | 1015.1 |
| 20260505230515 | 8 | 327 | 3.2 | 9.7 | 0.00 | 0.00 | 0.00 | 81 | 1015.2 |
| 20260505230031 | 8 | 337 | 3.2 | 9.7 | 0.00 | 0.00 | 0.00 | 82 | 1015.2 |
| 20260505225516 | 8 | 314 | 4.8 | 12.9 | 0.00 | 0.00 | 0.00 | 82 | 1015.2 |
| 20260505225017 | 8 | 333 | 3.2 | 12.9 | 0.00 | 0.00 | 0.00 | 82 | 1015.2 |
| 20260505224533 | 8 | 332 | 4.8 | 11.3 | 0.00 | 0.00 | 0.00 | 82 | 1015.1 |
| 20260505224016 | 8 | 344 | 4.8 | 12.9 | 0.00 | 0.00 | 0.00 | 82 | 1015.2 |
| 20260505223523 | 8 | 321 | 6.4 | 12.9 | 0.00 | 0.00 | 0.00 | 82 | 1015.2 |
| 20260505223035 | 8 | 321 | 3.2 | 11.3 | 0.00 | 0.00 | 0.00 | 82 | 1015.3 |
| 20260505222518 | 8 | 320 | 4.8 | 11.3 | 0.00 | 0.00 | 0.00 | 82 | 1015.3 |
| 20260505222020 | 8 | 309 | 6.4 | 11.3 | 0.00 | 0.00 | 0.00 | 82 | 1015.3 |
| 20260505221610 | 8 | 313 | 6.4 | 11.3 | 0.00 | 0.00 | 0.00 | 82 | 1015.3 |
| 20260505221022 | 8 | 330 | 6.4 | 11.3 | 0.00 | 0.00 | 0.00 | 82 | 1015.2 |
| 20260505220515 | 8 | 314 | 6.4 | 12.9 | 0.00 | 0.00 | 0.00 | 82 | 1015.3 |
| 20260505220031 | 8 | 319 | 6.4 | 12.9 | 0.00 | 0.00 | 0.00 | 81 | 1015.3 |
| 20260505215519 | 9 | 297 | 6.4 | 12.9 | 0.00 | 0.00 | 0.00 | 82 | 1015.2 |
| 20260505215018 | 9 | 309 | 6.4 | 14.5 | 0.00 | 0.00 | 0.00 | 81 | 1015.3 |
| 20260505214559 | 9 | 333 | 8.0 | 14.5 | 0.00 | 0.00 | 0.00 | 81 | 1015.4 |
| 20260505214021 | 9 | 335 | 6.4 | 14.5 | 0.00 | 0.00 | 0.00 | 81 | 1015.3 |
| 20260505213517 | 9 | 315 | 8.0 | 14.5 | 0.00 | 0.00 | 0.00 | 81 | 1015.3 |
| 20260505213036 | 9 | 320 | 6.4 | 16.1 | 0.00 | 0.00 | 0.00 | 80 | 1015.4 |
| 20260505212518 | 9 | 340 | 9.7 | 16.1 | 0.00 | 0.00 | 0.00 | 80 | 1015.3 |
| 20260505212017 | 9 | 2 | 9.7 | 16.1 | 0.00 | 0.00 | 0.00 | 80 | 1015.4 |
| 20260505211532 | 9 | 357 | 8.0 | 16.1 | 0.00 | 0.00 | 0.00 | 80 | 1015.4 |
| 20260505211016 | 9 | 342 | 6.4 | 14.5 | 0.00 | 0.00 | 0.00 | 80 | 1015.4 |
| 20260505210519 | 9 | 331 | 8.0 | 14.5 | 0.00 | 0.00 | 0.00 | 81 | 1015.3 |
| 20260505210034 | 9 | 335 | 6.4 | 14.5 | 0.00 | 0.00 | 0.00 | 81 | 1015.4 |
| 20260505205516 | 9 | 319 | 3.2 | 12.9 | 0.00 | 0.00 | 0.00 | 81 | 1015.4 |
| 20260505205018 | 9 | 319 | 4.8 | 12.9 | 0.00 | 0.00 | 0.00 | 82 | 1015.5 |
| 20260505204537 | 9 | 319 | 4.8 | 11.3 | 0.00 | 0.00 | 0.00 | 82 | 1015.5 |
| 20260505204019 | 9 | 321 | 4.8 | 11.3 | 0.00 | 0.00 | 0.00 | 81 | 1015.4 |
| 20260505203518 | 9 | 342 | 4.8 | 12.9 | 0.00 | 0.00 | 0.00 | 81 | 1015.4 |
| 20260505203043 | 9 | 346 | 4.8 | 12.9 | 0.00 | 0.00 | 0.00 | 81 | 1015.4 |
| 20260505202518 | 9 | 338 | 6.4 | 12.9 | 0.00 | 0.00 | 0.00 | 81 | 1015.4 |
| 20260505202017 | 9 | 318 | 6.4 | 12.9 | 0.00 | 0.00 | 0.00 | 81 | 1015.5 |
| 20260505201537 | 9 | 344 | 8.0 | 12.9 | 0.00 | 0.00 | 0.00 | 81 | 1015.4 |
| 20260505201015 | 9 | 330 | 8.0 | 16.1 | 0.00 | 0.00 | 0.00 | 81 | 1015.4 |
| 20260505200516 | 9 | 321 | 8.0 | 16.1 | 0.00 | 0.00 | 0.00 | 80 | 1015.3 |
| 20260505200034 | 9 | 328 | 6.4 | 16.1 | 0.00 | 0.00 | 0.00 | 81 | 1015.2 |
| 20260505195521 | 9 | 315 | 8.0 | 14.5 | 0.00 | 0.00 | 0.00 | 81 | 1015.2 |
| 20260505195015 | 9 | 329 | 8.0 | 12.9 | 0.00 | 0.00 | 0.00 | 81 | 1015.2 |
| 20260505194540 | 9 | 310 | 9.7 | 16.1 | 0.00 | 0.00 | 0.00 | 81 | 1015.3 |
| 20260505194019 | 9 | 304 | 8.0 | 16.1 | 0.00 | 0.00 | 0.00 | 81 | 1015.2 |
| 20260505193519 | 9 | 309 | 8.0 | 12.9 | 0.00 | 0.00 | 0.00 | 81 | 1015.1 |
| 20260505193036 | 9 | 321 | 8.0 | 12.9 | 0.00 | 0.00 | 0.00 | 81 | 1015.0 |
| 20260505192518 | 9 | 315 | 8.0 | 16.1 | 0.00 | 0.00 | 0.00 | 80 | 1015.0 |
| 20260505192021 | 10 | 309 | 9.7 | 16.1 | 0.00 | 0.00 | 0.00 | 80 | 1014.9 |
| 20260505191536 | 10 | 331 | 8.0 | 17.7 | 0.00 | 0.00 | 0.00 | 79 | 1015.0 |
| 20260505191018 | 10 | 311 | 9.7 | 17.7 | 0.00 | 0.00 | 0.00 | 78 | 1015.0 |
| 20260505190515 | 10 | 311 | 9.7 | 17.7 | 0.00 | 0.00 | 0.00 | 77 | 1014.9 |
| 20260505190037 | 10 | 324 | 8.0 | 16.1 | 0.00 | 0.00 | 0.00 | 77 | 1014.9 |
| 20260505185517 | 10 | 338 | 9.7 | 20.9 | 0.00 | 0.00 | 0.00 | 76 | 1014.9 |
| 20260505185105 | 10 | 318 | 11.3 | 20.9 | 0.00 | 0.00 | 0.00 | 75 | 1014.9 |
| 20260505184535 | 11 | 309 | 11.3 | 19.3 | 0.00 | 0.00 | 0.00 | 74 | 1014.9 |
| 20260505184018 | 11 | 331 | 11.3 | 19.3 | 0.00 | 0.00 | 0.00 | 74 | 1014.9 |
| 20260505183517 | 11 | 319 | 12.9 | 20.9 | 0.00 | 0.00 | 0.00 | 73 | 1014.9 |
| 20260505183033 | 11 | 321 | 11.3 | 20.9 | 0.00 | 0.00 | 0.00 | 74 | 1014.9 |
| 20260505182519 | 11 | 330 | 11.3 | 20.9 | 0.00 | 0.00 | 0.00 | 74 | 1014.9 |
| 20260505182015 | 11 | 326 | 9.7 | 20.9 | 0.00 | 0.00 | 0.00 | 73 | 1014.9 |
| 20260505181533 | 11 | 314 | 9.7 | 19.3 | 0.00 | 0.00 | 0.00 | 73 | 1014.9 |
| 20260505181017 | 12 | 360 | 9.7 | 22.5 | 0.00 | 0.00 | 0.00 | 73 | 1014.7 |
| 20260505180518 | 12 | 316 | 11.3 | 22.5 | 0.00 | 0.00 | 0.00 | 72 | 1014.7 |
| 20260505180057 | 12 | 327 | 14.5 | 22.5 | 0.00 | 0.00 | 0.00 | 70 | 1014.7 |
| 20260505175521 | 12 | 322 | 12.9 | 24.1 | 0.00 | 0.00 | 0.00 | 71 | 1014.8 |
| 20260505175022 | 12 | 331 | 12.9 | 24.1 | 0.00 | 0.00 | 0.00 | 71 | 1014.7 |
| 20260505174553 | 12 | 316 | 12.9 | 20.9 | 0.00 | 0.00 | 0.00 | 70 | 1014.7 |
| 20260505174018 | 12 | 308 | 11.3 | 19.3 | 0.00 | 0.00 | 0.00 | 70 | 1014.7 |
| 20260505173519 | 12 | 342 | 11.3 | 19.3 | 0.00 | 0.00 | 0.00 | 71 | 1014.7 |
| 20260505173043 | 12 | 10 | 11.3 | 22.5 | 0.00 | 0.00 | 0.00 | 71 | 1014.8 |
| 20260505172515 | 12 | 334 | 12.9 | 24.1 | 0.00 | 0.00 | 0.00 | 71 | 1014.7 |
| 20260505172015 | 12 | 319 | 12.9 | 24.1 | 0.00 | 0.00 | 0.00 | 70 | 1014.7 |
| 20260505171534 | 12 | 326 | 14.5 | 20.9 | 0.00 | 0.00 | 0.00 | 70 | 1014.8 |
| 20260505171021 | 12 | 336 | 12.9 | 20.9 | 0.00 | 0.00 | 0.00 | 69 | 1014.9 |
| 20260505170515 | 12 | 317 | 12.9 | 25.7 | 0.00 | 0.00 | 0.00 | 70 | 1014.8 |
| 20260505170038 | 12 | 34 | 12.9 | 25.7 | 0.00 | 0.00 | 0.00 | 69 | 1014.9 |
| 20260505165518 | 13 | 352 | 14.5 | 24.1 | 0.00 | 0.00 | 0.00 | 69 | 1014.9 |
| 20260505165016 | 13 | 320 | 14.5 | 25.7 | 0.00 | 0.00 | 0.00 | 70 | 1014.9 |
| 20260505164533 | 13 | 309 | 12.9 | 25.7 | 0.00 | 0.00 | 0.00 | 72 | 1015.0 |